Regional Weather Roundup
Issued by NWS

Home | Current Version | Previous Version | Text Only | Print | Product List | Glossary On
Versions: 1 2 3 4 5 6 7 8 9 10 11 12 13 14 15 16 17 18 19 20 21 22 23 24 25 26 27 28 29 30 31 32 33 34 35 36 37 38 39 40 41 42 43 44 45 46 47 48 49 50
000
ASUS44 KLIX 280111
RWRLA
LOUISIANA WEATHER ROUNDUP
NATIONAL WEATHER SERVICE NEW ORLEANS LA
800 PM CDT THU AUG 27 2015

NOTE: "FAIR" INDICATES FEW OR NO CLOUDS BELOW 12,000 FEET WITH NO
      SIGNIFICANT WEATHER AND/OR OBSTRUCTIONS TO VISIBILITY.
      SKY/WX - SKY CONDITION AND SIGNIFICANT WEATHER.
      TMP - AIR TEMPERATURE.    DP   - DEWPOINT TEMPERATURE.
      RH  - RELATIVE HUMIDITY.  PRES - PRESSURE.
      HX  - HEAT INDEX.         WCI  - WIND CHILL INDEX.

*  THESE STATIONS ARE NOT NWS OR FAA STATIONS AND ARE NOT UNDER
   NWS QUALITY CONTROL.

LAZ040-048-061>063-065-066-069-280200-
SOUTHEAST LOUISIANA

CITY           SKY/WX    TMP DP  RH WIND       PRES   REMARKS
N.O. AUDUBON     N/A     82  62  51 MISG        N/A
N.O. INTL ARPT PTCLDY    82  57  42 CALM      29.96S
N.O. LAKEFRONT CLEAR     83  59  44 E3        29.97R
N.O. DOWNTOWN* FAIR      84  57  39 CALM      29.98R
RESERVE*       FAIR      76  70  80 CALM      29.96S
SLIDELL        CLEAR     74  67  78 CALM      29.95S
BATON ROUGE    CLEAR     75  64  68 CALM      29.97S
BOOTHVILLE     CLEAR     80  65  59 CALM      29.97R
BELLE CHASSE   PTCLDY    72  66  81 CALM      29.96S
BOGALUSA*      NOT AVBL
GALLIANO*      CLEAR     74  67  77 CALM      29.97S
NEW ROADS*     FAIR      76  58  53 N3        29.97S
GONZALES*      FAIR      74  66  75 CALM      29.96R
HAMMOND*       CLEAR     81  54  39 CALM      29.98S
HOUMA*         CLEAR     74  64  69 CALM      29.96F
PORT FOURCHON* CLEAR     81  63  54 E5        29.98S

$$

LAZ041-044-053-054-280200-
SOUTHWEST LOUISIANA

CITY           SKY/WX    TMP DP  RH WIND       PRES   REMARKS
LAKE CHARLES   CLEAR     82  65  56 E3        29.97S
LAFAYETTE      CLEAR     77  66  68 CALM      29.97F
PATTERSON      CLEAR     75  63  64 CALM      29.98F
SALT POINT       N/A     77  64  64 CALM      29.96F
NEW IBERIA     PTCLDY    80  56  43 NE3       29.98S
CHENAULT AIRPK CLEAR     81  66  61 E3        29.97S

$$

LAZ027-028-280200-
CENTRAL LOUISIANA

CITY           SKY/WX    TMP DP  RH WIND       PRES   REMARKS
FORT POLK      CLEAR     78  65  63 N6        29.97S
ALEXANDRIA INT PTCLDY    79  59  50 N5        29.96S
ALEXANDRIA     PTCLDY    78  57  48 CALM      29.99R

$$

LAZ001-002-280200-
NORTHWEST LOUISIANA

CITY           SKY/WX    TMP DP  RH WIND       PRES   REMARKS
SHREVEPORT     MOCLDY    81  62  52 NE8       30.00S
BARKSDALE AFB  PTCLDY    77  64  62 NE5       30.00S
DTN SHREVEPORT MOCLDY    78  64  61 CALM      30.00S

$$

LAZ014-016-280200-
NORTHEAST LOUISIANA

CITY           SKY/WX    TMP DP  RH WIND       PRES   REMARKS
MONROE         CLEAR     77  58  51 NE7       30.01F
TALLULAH       CLEAR     73  62  68 NW6       30.00R

$$



USA.gov is the U.S. government's official web portal to all federal, state and local government web resources and services.